Stations météo

Publicité
Cap Cepet, France (7661): Température de l'air & dewpoint: 14.08.2018 22:00:00 - 20.08.2018 22:00:00 (CEST)Cap Cepet, France (7661): Vitesse du vent & gusts: 14.08.2018 22:00:00 - 20.08.2018 22:00:00 (CEST)Cap Cepet, France (7661): Direction du vent: 14.08.2018 22:00:00 - 20.08.2018 22:00:00 (CEST)Cap Cepet, France (7661): reduced air pressure: 14.08.2018 22:00:00 - 20.08.2018 22:00:00 (CEST)Cap Cepet, France (7661): visibility: 14.08.2018 22:00:00 - 20.08.2018 22:00:00 (CEST)Cap Cepet, France (7661): Quantités de précipitations: 14.08.2018 22:00:00 - 20.08.2018 22:00:00 (CEST)
Date & Time tt [°C] td [°C] ff [km/h] ff [knt] fx [km/h] fx [knt] dd ppp [hPa] vv [km] rr [mm]
20.08.2018 22:00:00 24,0 17,3 12 7 29 15 NE 1014,8 - 0,0
20.08.2018 21:00:00 25,7 17,1 4 2 46 25 WSW 1014,0 - 0,0
20.08.2018 20:00:00 25,3 18,0 35 19 56 30 NE 1014,9 - 0,0
20.08.2018 19:00:00 27,1 15,5 9 5 24 13 NW 1015,1 - 0,0
20.08.2018 18:00:00 27,1 15,8 14 7 28 15 WNW 1015,2 - 0,0
20.08.2018 17:00:00 28,4 17,0 17 9 31 17 W 1014,6 25 0,0
20.08.2018 16:00:00 30,8 14,4 11 6 20 11 SSW 1014,5 - 0,0
20.08.2018 15:00:00 31,1 16,3 9 5 20 11 SSW 1015,1 - 0,0
20.08.2018 14:00:00 30,8 15,6 8 4 18 10 S 1015,3 - 0,0
20.08.2018 13:00:00 30,9 17,6 9 5 18 10 S 1015,6 - 0,0
20.08.2018 12:00:00 31,3 14,4 10 5 18 10 E 1015,5 - 0,0
20.08.2018 11:00:00 30,3 17,4 7 4 16 9 NE 1015,3 - 0,0
20.08.2018 10:00:00 27,7 18,1 7 4 10 5 NE 1015,3 - 0,0
20.08.2018 09:00:00 25,2 16,6 10 6 20 11 NE 1015,4 - 0,0
20.08.2018 08:00:00 23,2 16,5 16 9 21 11 ENE 1015,1 - 0,0
20.08.2018 07:00:00 22,2 16,0 11 6 15 8 ENE 1014,7 - 0,0
20.08.2018 06:00:00 23,1 15,2 8 4 13 7 NW 1014,7 - 0,0
20.08.2018 05:00:00 23,1 15,9 8 4 22 12 NNE 1014,8 - 0,0
20.08.2018 04:00:00 24,0 15,2 14 7 18 10 ENE 1015,1 - 0,0
20.08.2018 03:00:00 24,7 15,3 11 6 14 7 NE 1015,1 - 0,0
20.08.2018 02:00:00 24,9 15,8 6 3 9 5 ENE 1015,4 - 0,0
20.08.2018 01:00:00 24,6 17,3 4 2 9 5 ENE 1016,1 - 0,0
20.08.2018 00:00:00 24,3 19,8 2 1 15 8 N 1016,3 - 0,0
19.08.2018 23:00:00 24,7 17,7 12 6 17 9 W 1016,4 - 0,0
19.08.2018 22:00:00 25,9 15,3 11 6 23 12 W 1016,6 - 0,0
19.08.2018 21:00:00 26,4 15,4 17 9 24 13 W 1016,1 - 0,0
19.08.2018 20:00:00 27,1 16,1 15 8 29 16 W 1016,4 25 0,0
19.08.2018 19:00:00 27,5 16,8 14 8 22 12 W 1016,1 - 0,0
19.08.2018 18:00:00 30,0 16,8 9 5 18 10 SSW 1016,3 - 0,0
19.08.2018 17:00:00 30,8 15,6 7 4 18 10 SW 1016,4 20 0,0
19.08.2018 16:00:00 29,9 17,0 11 6 20 11 SSW 1016,9 - 0,0
19.08.2018 15:00:00 29,6 18,4 10 5 19 11 SSW 1017,2 - 0,0
19.08.2018 14:00:00 29,9 18,7 9 5 17 9 SSW 1017,3 25 0,0
19.08.2018 13:00:00 30,0 16,1 6 3 22 12 S 1017,6 - 0,0
19.08.2018 12:00:00 30,7 14,3 6 3 18 10 ESE 1017,4 - 0,0
19.08.2018 11:00:00 29,5 17,0 4 2 8 4 ENE 1017,6 25 0,0
19.08.2018 10:00:00 26,9 16,8 0 0 6 3 N 1017,5 - 0,0
19.08.2018 09:00:00 25,0 16,4 4 2 11 6 NE 1017,2 - 0,0
19.08.2018 08:00:00 22,7 16,0 6 4 24 13 NE 1017,4 - 0,0
19.08.2018 07:00:00 22,0 14,1 12 6 15 8 E 1016,9 - 0,0
19.08.2018 06:00:00 23,2 15,5 2 1 9 5 N 1016,7 - 0,0
19.08.2018 05:00:00 22,5 16,5 6 3 12 6 NNW 1016,7 - 0,0
19.08.2018 04:00:00 22,7 16,9 7 4 12 6 NW 1016,8 - 0,0
19.08.2018 03:00:00 23,0 17,9 4 2 14 8 NNE 1017,0 - 0,0
19.08.2018 02:00:00 23,2 18,1 11 6 21 11 W 1016,9 - 0,0
19.08.2018 01:00:00 23,3 19,5 17 9 22 12 W 1017,3 - 0,0
19.08.2018 00:00:00 23,9 16,9 6 3 18 10 ENE 1017,4 - 0,0
18.08.2018 23:00:00 23,8 17,1 14 8 20 11 ENE 1017,4 - 0,0
18.08.2018 22:00:00 24,3 18,7 8 4 13 7 NE 1017,1 - 0,0
18.08.2018 21:00:00 24,8 18,0 8 4 21 11 W 1016,7 - 0,0
18.08.2018 20:00:00 25,8 18,7 10 5 18 10 W 1016,6 23 0,0
18.08.2018 19:00:00 26,5 19,9 5 3 18 10 WSW 1016,4 - 0,0
18.08.2018 18:00:00 26,4 21,6 11 6 19 10 SSW 1016,1 - 0,0
18.08.2018 17:00:00 28,2 21,0 4 2 17 9 S 1016,2 - 0,0
18.08.2018 16:00:00 28,7 18,8 6 4 16 9 SE 1016,2 - 0,0
18.08.2018 15:00:00 27,7 20,5 9 5 21 11 SSE 1016,4 - 0,0
18.08.2018 14:00:00 27,8 22,5 13 7 25 14 SSE 1016,6 25 0,0
18.08.2018 13:00:00 28,4 21,9 13 7 24 13 SE 1016,6 - 0,0
18.08.2018 12:00:00 27,4 21,9 12 6 23 12 ESE 1016,5 - 0,0
18.08.2018 11:00:00 26,8 18,6 10 6 22 12 ENE 1016,5 28 0,0
18.08.2018 10:00:00 26,1 18,0 17 9 24 13 NE 1016,0 - 0,0
18.08.2018 09:00:00 23,4 17,6 10 6 17 9 NE 1015,9 - 0,0
18.08.2018 08:00:00 21,2 17,0 6 3 10 6 ENE 1015,7 25 0,0
18.08.2018 07:00:00 21,6 17,8 6 3 10 5 N 1015,1 - 0,0
18.08.2018 06:00:00 21,2 17,8 5 3 17 9 N 1014,6 - 0,0
18.08.2018 05:00:00 21,2 17,6 10 5 23 12 NE 1014,4 - 0,0
18.08.2018 04:00:00 22,3 16,3 13 7 19 11 NE 1014,6 - 0,0
18.08.2018 03:00:00 21,9 17,3 11 6 17 9 NE 1014,6 - 0,0
18.08.2018 02:00:00 22,4 18,2 8 4 13 7 NE 1014,7 - 0,0
18.08.2018 01:00:00 22,3 19,1 6 3 10 5 NNE 1014,7 - 0,0
18.08.2018 00:00:00 22,6 19,2 10 5 22 12 NW 1014,7 - 0,0
17.08.2018 23:00:00 23,2 19,1 15 8 25 14 W 1014,3 - 0,0
17.08.2018 22:00:00 23,8 19,3 16 9 23 13 W 1014,1 - 0,0
17.08.2018 21:00:00 24,3 20,0 10 5 16 9 W 1013,7 - 0,0
17.08.2018 20:00:00 25,4 20,6 10 6 26 14 SW 1013,2 - 0,0
17.08.2018 19:00:00 26,7 18,8 18 10 34 19 W 1013,1 - 0,0
17.08.2018 18:00:00 27,5 18,5 19 10 38 21 W 1013,2 - 0,0
17.08.2018 17:00:00 27,2 18,2 25 14 39 21 W 1013,8 30 0,0
17.08.2018 16:00:00 27,6 18,3 20 11 32 17 W 1014,2 - 0,0
17.08.2018 15:00:00 28,2 18,3 16 9 29 16 W 1014,2 - 0,0
17.08.2018 14:00:00 27,7 18,1 19 11 30 16 WNW 1014,5 30 0,0
17.08.2018 13:00:00 27,2 17,1 16 9 27 15 WNW 1015,0 - -
17.08.2018 12:00:00 - - 17 9 27 15 W - - -
17.08.2018 11:00:00 - - 16 9 25 13 W - 30 -
17.08.2018 10:00:00 - - 2 1 7 4 W - - -
17.08.2018 09:00:00 - - 6 3 11 6 W - - -
17.08.2018 08:00:00 - - 5 3 12 7 NW - - -
17.08.2018 07:00:00 - - 7 4 16 9 WNW - - -
17.08.2018 06:00:00 - - 11 6 15 8 W - - -
17.08.2018 05:00:00 - - 13 7 14 8 W - - -
17.08.2018 04:00:00 - - 6 3 18 10 WNW - - -
17.08.2018 03:00:00 - - 12 6 17 9 W - - -
17.08.2018 02:00:00 - - 9 5 13 7 WNW - - -
17.08.2018 01:00:00 - - 9 5 23 13 WNW - - -
17.08.2018 00:00:00 - - 18 10 35 19 WNW - - -
16.08.2018 23:00:00 - - 20 11 29 16 W - - -
16.08.2018 22:00:00 - - 17 9 26 14 W - - -
16.08.2018 21:00:00 - - 16 9 26 14 W - - -
16.08.2018 20:00:00 - - 17 9 26 14 W - 35 -
16.08.2018 19:00:00 - - 16 9 24 13 W - - -
16.08.2018 18:00:00 - - 8 4 23 13 W - - -
16.08.2018 17:00:00 - - 14 7 22 12 SSW - - -
16.08.2018 16:00:00 - - 14 8 22 12 SSW - - -
16.08.2018 15:00:00 - - 13 7 20 11 S - - -
16.08.2018 14:00:00 - - 10 6 19 11 S - 35 -
16.08.2018 13:00:00 - - 9 5 22 12 SSE - - -
16.08.2018 12:00:00 - - 9 5 21 11 ESE - - -
16.08.2018 11:00:00 - - 11 6 19 10 ENE - 30 -
16.08.2018 10:00:00 - - 11 6 19 10 ENE - - -
16.08.2018 09:00:00 - - 16 8 23 13 ENE - - -
16.08.2018 08:00:00 - - 9 5 21 12 NE - 30 -
16.08.2018 07:00:00 - - 8 4 11 6 NE - - -
16.08.2018 06:00:00 - - 6 3 10 6 N - - -
16.08.2018 05:00:00 - - 5 3 9 5 N - - -
16.08.2018 04:00:00 - - 4 2 10 5 NW - - -
16.08.2018 03:00:00 - - 7 4 10 5 NW - - -
16.08.2018 02:00:00 - - 5 3 10 5 NNW - - -
16.08.2018 01:00:00 - - 5 3 10 5 NNE - - -
16.08.2018 00:00:00 - - 8 4 14 7 WNW - - -
15.08.2018 23:00:00 - - 11 6 16 8 W - - -
15.08.2018 22:00:00 - - 12 6 19 10 WNW - - -
15.08.2018 21:00:00 - - 11 6 29 16 WNW - - -
15.08.2018 20:00:00 - - 19 11 34 18 W - - -
15.08.2018 19:00:00 - - 19 10 33 18 W - - -
15.08.2018 18:00:00 - - 20 11 32 17 W - - -
15.08.2018 17:00:00 - - 18 10 29 15 W - - -
15.08.2018 16:00:00 - - 17 9 29 15 WNW - - -
15.08.2018 15:00:00 - - 11 6 24 13 W - - -
15.08.2018 14:00:00 - - 13 7 21 11 SSW - 40 -
15.08.2018 13:00:00 - - 8 4 17 9 SW - - -
15.08.2018 12:00:00 - - 9 5 16 9 SSW - - -
15.08.2018 11:00:00 - - 7 4 14 7 W - - -
15.08.2018 10:00:00 - - 7 4 13 7 W - - -
15.08.2018 09:00:00 - - 9 5 16 8 WNW - - -
15.08.2018 08:00:00 - - 6 4 8 5 WNW - 35 -
15.08.2018 07:00:00 - - 5 3 9 5 NNE - - -
15.08.2018 06:00:00 - - 7 4 10 6 NNE - - -
15.08.2018 05:00:00 - - 5 3 13 7 N - 10 -
15.08.2018 04:00:00 - - 11 6 15 8 ENE - - -
15.08.2018 03:00:00 - - 5 3 9 5 NNE - - -
15.08.2018 02:00:00 - - 8 4 13 7 N - - -
15.08.2018 01:00:00 - - 5 3 24 13 N - - -
15.08.2018 00:00:00 - - 12 6 28 15 NE - - -
14.08.2018 23:00:00 - - 23 13 34 19 ENE - - -
14.08.2018 22:00:00 - - 15 8 31 17 NNE - - -

tt = Température de l'air
td = dewpoint
ff = Vitesse du vent
fx = gusts
dd = Direction du vent
ppp = reduced air pressure
vv = visibility
rr = Quantités de précipitations

stations d'obs. à proximité